Teterboro, NJ

10:43 PM EST on February 24, 2017 (GMT -0500)
Teterboro

Weather History for KTEB - October, 2014

Change the Weather History Date:

Tuesday, October 14, 2014

  Actual Average Record
Temperature  
Mean Temperature 70 °F -  
Max Temperature 78 °F 63 °F 81 °F (2000)
Min Temperature 62 °F 44 °F 36 °F (2006)
Cooling Degree Days 5    
Growing Degree Days 20 (Base 50)    
Moisture  
Dew Point 62 °F    
Average Humidity 77    
Maximum Humidity 94    
Minimum Humidity 56    
Precipitation  
Precipitation 0.00 in - - ()
Sea Level Pressure  
Sea Level Pressure 30.18 in    
Wind  
Wind Speed 5 mph (South)    
Max Wind Speed 16 mph    
Max Gust Speed 24 mph    
Visibility 10 miles    
Events Fog    
Averages and records for this station are not official NWS values.
T = Trace of Precipitation, MM = Missing Value Source: NWS Daily Summary

Daily Weather History Graph

Daily Weather History Graph

Search for Another Location

Airport or City:

Trip Planner

Search our weather history database for the weather conditions in past years. The results will help you decide how hot, cold, wet, or windy it might be!

Date:

Astronomy

Oct. 14, 2014 Rise Set
Actual Time 7:06 AM EDT 6:17 PM EDT
Civil Twilight 6:38 AM EDT 6:44 PM EDT
Nautical Twilight 6:07 AM EDT 7:16 PM EDT
Astronomical Twilight 5:35 AM EDT 7:48 PM EDT
Moon 11:19 PM EDT (10/14) 1:06 PM EDT (10/14)
Length of Visible Light 12h 06m
Length of Day
11h 10m
Waning Gibbous, 61% of the Moon is Illuminated
Oct 14
Waning Gibbous
Oct 15
Last Quarter
Oct 23
New
Oct 30
First Quarter
Nov 6
Full

Hourly Weather History & Observations

Time (EDT) Temp. Dew Point Humidity Pressure Visibility Wind Dir Wind Speed Gust Speed Precip Events Conditions
12:03 AM 64.4 °F 60.8 °F 88% 30.23 in 10.0 mi South 4.6 mph - N/A   Overcast
12:51 AM 64.0 °F 61.0 °F 90% 30.22 in 10.0 mi Calm Calm - N/A   Overcast
12:58 AM 64.4 °F 60.8 °F 88% 30.22 in 10.0 mi Calm Calm - N/A   Overcast
1:51 AM 64.0 °F 61.0 °F 90% 30.22 in 10.0 mi Calm Calm - N/A   Overcast
2:51 AM 63.0 °F 61.0 °F 93% 30.20 in 6.0 mi Calm Calm - N/A   Overcast
2:58 AM 62.6 °F 60.8 °F 94% 30.20 in 10.0 mi Calm Calm - N/A   Overcast
3:10 AM 62.6 °F 60.8 °F 94% 30.20 in 10.0 mi Calm Calm - N/A   Overcast
3:51 AM 63.0 °F 61.0 °F 93% 30.20 in 10.0 mi Calm Calm - N/A   Overcast
4:51 AM 63.0 °F 61.0 °F 93% 30.20 in 10.0 mi Calm Calm - N/A   Overcast
5:51 AM 63.0 °F 60.1 °F 90% 30.20 in 10.0 mi Calm Calm - N/A Fog Shallow Fog
6:51 AM 62.1 °F 59.0 °F 90% 30.21 in 10.0 mi Calm Calm - N/A Fog Shallow Fog
7:51 AM 64.0 °F 61.0 °F 90% 30.22 in 10.0 mi Calm Calm - N/A Fog Shallow Fog
8:51 AM 66.9 °F 63.0 °F 87% 30.22 in 10.0 mi South 4.6 mph - N/A   Overcast
9:51 AM 71.1 °F 64.0 °F 78% 30.22 in 10.0 mi South 9.2 mph - N/A   Partly Cloudy
10:51 AM 73.4 °F 62.6 °F 69% 30.21 in 10.0 mi South 13.8 mph - N/A   Mostly Cloudy
11:19 AM 73.4 °F 62.6 °F 69% 30.20 in 10.0 mi South 13.8 mph - N/A   Overcast
11:30 AM 75.2 °F 62.6 °F 65% 30.20 in 10.0 mi South 12.7 mph 19.6 mph N/A   Overcast
11:49 AM 75.2 °F 62.6 °F 65% 30.19 in 10.0 mi South 16.1 mph 24.2 mph N/A   Overcast
11:51 AM 75.0 °F 62.1 °F 64% 30.19 in 10.0 mi South 15.0 mph 24.2 mph N/A   Overcast
12:51 PM 77.0 °F 61.0 °F 58% 30.17 in 10.0 mi SSE 10.4 mph 20.7 mph N/A   Clear
1:51 PM 78.1 °F 61.0 °F 56% 30.15 in 10.0 mi South 15.0 mph 21.9 mph N/A   Clear
2:51 PM 75.9 °F 61.0 °F 60% 30.14 in 10.0 mi SSE 13.8 mph - N/A   Clear
3:51 PM 77.0 °F 62.1 °F 60% 30.12 in 10.0 mi SSE 15.0 mph 24.2 mph N/A   Clear
4:51 PM 75.0 °F 61.0 °F 62% 30.12 in 10.0 mi South 11.5 mph 20.7 mph N/A   Partly Cloudy
5:51 PM 73.9 °F 61.0 °F 64% 30.12 in 10.0 mi South 11.5 mph 19.6 mph N/A   Mostly Cloudy
6:51 PM 72.0 °F 61.0 °F 68% 30.12 in 10.0 mi SSE 8.1 mph - N/A   Overcast
7:51 PM 72.0 °F 62.1 °F 71% 30.12 in 10.0 mi South 6.9 mph - N/A   Overcast
8:51 PM 72.0 °F 62.1 °F 71% 30.12 in 10.0 mi SSE 8.1 mph - N/A   Overcast
9:51 PM 72.0 °F 62.1 °F 71% 30.11 in 10.0 mi South 11.5 mph - N/A   Overcast
10:51 PM 71.6 °F 62.6 °F 73% 30.11 in 10.0 mi South 9.2 mph - N/A   Overcast
11:51 PM 71.1 °F 63.0 °F 75% 30.09 in 10.0 mi South 6.9 mph - N/A   Overcast